COSMOS 2559 (707K)

Last updated on Sat May 17 2025 00:03:13 GMT+0000 (Coordinated Universal Time)

1 54031U 22130A 25135.46383944 -.00000038 00000+0 00000+0 0 9998 2 54031 64.4957 328.5631 0011206 175.9232 184.1068 2.13101530 20205
UTC large
Height (km)
Speed (km/s)
/
Latitude / Longitude
Inclination (degrees)
Orbital Period (minutes)
Azimuth
Elevation
Range (km)
Doppler Factor

Next 0 passes for location: London (51.5072 / 0.1276)

Sorry there are no passes over London.